www.pogodaiklimat.ru

Погода и климат >> Архив погоды >> Россия >> Краснодарский край >> Новороссийск


АРХИВ ПОГОДЫ в Новороссийске

Время (UTC), дата Ветер
(напр.,м/с)
 
Видим.   Явления Облачность Т
(С)
Тd
(С)
f
(%)
Тe
(С)
Тes
(С)
Комфортность P
(гПа)
Po
(гПа)
Тmin
(С)
Tmax
(С)
R
(мм)
R24
(мм)
S
(см)
21 18.05 СВ 6-12
{12}
10 км 9/0
[Ac trans Ci fib]
+25.3 +12.8 46 +27 +27 жарко 1003.2 1001.9
00 19.05 СВ 4-12
{12}
10 км 8/0
[Ac trans Ci fib]
+22.9 +14.2 58 +26 +26 жарко 1004.2 1002.9
03 19.05 Ю 1
{12}
20 км 8/8 600 м
[Sc]
+19.9 +16.6 81 +24 +24 комфорт 1006.2 1004.9 +19.9
06 19.05 Ю 3 4000 м дымка 10/10 300 м
[Cb calv]
+20.0 +16.3 79 +23 +23 комфорт 1008.1 1006.8 +19.7
09 19.05 Ю 1 4000 м дымка {ливн. осадки} 10/10 300 м
[Cb cap]
+19.4 +16.5 83 +22 +22 комфорт 1010.3 1009.0
12 19.05 Ю 1 10 км {ливн. осадки} 9/9 600 м
[Sc]
+19.7 +16.1 80 +23 +25 комфорт 1011.0 1009.7
15 19.05 Ю 1 10 км 10/10 300 м
[Sc]
+20.1 +14.9 72 +24 +24 комфорт 1011.7 1010.4 +21.0 0.9
18 19.05 З 1 10 км 9/9 600 м
[Sc]
+19.1 +14.8 76 +22 +22 комфорт 1012.4 1011.1
21 19.05 штиль 0 10 км 9/8 600 м
[Sc Ci fib]
+18.1 +15.3 84 +18 +18 тепло 1012.8 1011.5
00 20.05 штиль 0 10 км 10/10 600 м
[Sc]
+18.3 +15.0 81 +19 +19 тепло 1013.5 1012.2
03 20.05 штиль 0 4000 м дымка 10/10 300 м
[St]
+17.8 +15.6 87 +18 +18 тепло 1014.1 1012.8 +17.6
06 20.05 ЮЗ 1 10 км 8/3 600 м
[Sc Ac trans]
+19.5 +16.2 81 +23 +27 комфорт 1015.0 1013.7
09 20.05 Ю 1 10 км 10/3 600 м
[Sc Ac As]
+19.5 +15.7 79 +23 +27 комфорт 1016.4 1015.1
12 20.05 штиль 0 10 км 10/3 600 м
[Sc Ac As]
+19.6 +15.5 77 +21 +25 комфорт 1016.7 1015.4
15 20.05 штиль 0 10 км 8/3 600 м
[Sc Cs]
+20.2 +15.2 73 +22 +24 комфорт 1015.6 1014.3 +20.9
18 20.05 В 3
{10}
10 км ясно +20.9 +14.4 66 +24 +24 комфорт 1015.5 1014.2
21 20.05 СВ 1 10 км ясно +19.1 +14.1 73 +21 +21 комфорт 1015.5 1014.2
00 21.05 СВ 1 10 км 3/3 600 м
[Sc]
+17.8 +14.9 83 +19 +19 тепло 1015.4 1014.1
03 21.05 СВ 1 10 км 3/3 600 м
[Sc]
+17.1 +14.8 86 +18 +19 тепло 1016.1 1014.8 +16.4
06 21.05 Ю 1 10 км 10/10 600 м
[St]
+20.2 +15.1 72 +24 +24 комфорт 1017.4 1016.1
09 21.05 Ю 2 20 км 10/3 600 м
[Cu Sc Ac trans Ci fib]
+21.4 +15.9 71 +25 +31 комфорт 1017.2 1015.9
12 21.05 Ю 1 20 км 10/1 600 м
[Cu Sc Cs]
+21.5 +16.0 71 +25 +36 комфорт 1017.1 1015.8
15 21.05 Ю 1 20 км 10/0
[As op]
+20.2 +15.6 75 +24 +25 комфорт 1015.6 1014.3 +21.9
18 21.05 СВ 1 10 км 9/3 1000 м
[Sc Ac trans Ci fib]
+18.9 +14.6 76 +21 +21 комфорт 1015.0 1013.7
21 21.05 СВ 1 10 км 5/0
[Ci fib]
+17.4 +14.1 81 +18 +18 тепло 1014.1 1012.8
00 22.05 штиль 0 10 км 10/0
[Cc]
+17.1 +13.9 81 +17 +17 тепло 1012.8 1011.5
03 22.05 СВ 2 20 км 10/8 600 м
[Sc Cc]
+18.4 +14.7 79 +19 +20 тепло 1013.8 1012.5 +16.9
06 22.05 В 2 10 км слаб. ливневой дождь 10/10 600 м
[Cb cap]
+17.1 +14.0 82 +17 +17 по сезону 1013.9 1012.6
09 22.05 Ю 2 20 км {ливн. осадки} 8/8 600 м
[Cb calv]
+20.2 +14.0 68 +23 +27 комфорт 1014.3 1013.0
12 22.05 Ю 3 20 км {ливн. осадки} 8/8 600 м
[Cu Sc]
+20.9 +15.4 71 +25 +27 комфорт 1014.4 1013.1
15 22.05 Ю 3 20 км 8/8 600 м
[Cu Sc]
+20.5 +15.6 73 +24 +24 комфорт 1013.9 1012.6 +21.6 4
18 22.05 Ю 2 10 км 8/8 600 м
[Sc]
+19.3 +15.6 79 +22 +22 комфорт 1014.1 1012.9
21 22.05 Ю 3 10 км 10/10 600 м
[Sc]
+19.0 +15.4 80 +21 +21 комфорт 1013.9 1012.6
00 23.05 Ю 1 10 км 10/10 600 м
[Sc]
+18.7 +14.7 78 +21 +21 комфорт 1013.2 1011.9
03 23.05 В 1 20 км 3/0
[Ci fib]
+16.8 +13.9 83 +18 +18 тепло 1012.9 1011.6 +16.8
06 23.05 Ю 3 20 км 8/8 600 м
[Cu Sc]
+20.2 +14.4 69 +23 +24 комфорт 1013.1 1011.8
09 23.05 Ю 3 20 км 4/3 600 м
[Cu med, cong Ci fib]
+21.2 +14.1 64 +24 +34 комфорт 1013.3 1012.0
12 23.05 Ю 3 20 км 5/3 600 м
[Sc Ac trans Ci fib]
+22.7 +14.5 60 +26 +33 жарко 1013.1 1011.8
15 23.05 Ю 3 20 км 8/5 600 м
[Sc Ci fib]
+20.8 +16.1 74 +24 +25 комфорт 1012.4 1011.1 +23.0
18 23.05 Ю 3 10 км 8/8 600 м
[Sc]
+20.0 +15.9 77 +23 +23 комфорт 1012.7 1011.4
21 23.05 Ю 2 10 км 8/8 600 м
[Sc]
+19.7 +16.6 82 +23 +23 комфорт 1012.1 1010.8
00 24.05 Ю 2 10 км 6/6 600 м
[Sc]
+19.4 +16.2 82 +22 +22 комфорт 1011.5 1010.2
03 24.05 ЮВ 2 10 км 8/8 600 м
[Sc]
+19.5 +16.0 80 +22 +22 комфорт 1011.0 1009.7 +19.2
06 24.05 Ю 3 10 км 4/3 300 м
[Sc Ci fib]
+21.2 +16.3 74 +25 +30 комфорт 1011.2 1009.9
09 24.05 Ю 3 20 км 8/3 300 м
[Cu Sc Cs]
+22.4 +15.8 66 +26 +36 жарко 1010.9 1009.6
12 24.05 Ю 2 20 км 4/1 600 м
[Cu hum Ci sp]
+22.4 +15.6 65 +26 +38 жарко 1009.7 1008.4
15 24.05 Ю 2 20 км 8/0
[Ac As]
+20.7 +16.0 74 +25 +26 комфорт 1009.2 1008.0 +23.3
18 24.05 штиль 0 10 км 6/0
[Ac trans Cc]
+19.9 +15.9 78 +22 +22 комфорт 1008.2 1007.0
21 24.05 СВ 2 10 км ясно +18.4 +10.1 58 +19 +19 тепло 1008.3 1007.0
00 25.05 СВ 1 10 км ясно +16.9 +10.3 65 +18 +18 тепло 1006.9 1005.6
03 25.05 СВ 1 20 км 5/0
[Ac trans Cc]
+17.6 +12.2 71 +19 +19 тепло 1006.1 1004.9 +16.4
06 25.05 СВ 1 4000 м гроза, ливневой дождь 10/10 1000 м
[Cb cap]
+18.3 +14.3 77 +20 +20 тепло 1007.8 1006.5
09 25.05 СВ 3 20 км в посл. час гроза {ливн. осадки} 10/10 1000 м
[Cb calv]
+18.4 +13.3 72 +19 +19 тепло 1006.9 1005.6
12 25.05 штиль 0 10 км гроза, ливневой дождь 10/10 300 м
[Cb cap]
+17.0 +14.5 85 +17 +17 прохладно 1009.5 1008.2
15 25.05 ЮЗ 2 10 км {гроза, ливн. осадки} 10/10 300 м
[Cb calv]
+18.2 +13.9 76 +19 +19 тепло 1010.0 1008.8 +19.1 20
18 25.05 ЮЗ 4 10 км {гроза, ливн. осадки} 10/10 300 м
[Sc diur, vesp]
+18.7 +14.2 75 +19 +19 тепло 1011.2 1009.9

 

Местоположение метеостанции Новороссийск (Краснодарский край, Россия): широта 44.72 долгота 37.85 высота над уровнем моря 3 м.

В архиве по умолчанию представлена погода в Новороссийске за последнюю неделю. Архивные данные за месяц целиком и за предыдущие месяцы, начиная с января 2011 года, Вы можете получить, выбрав интересующий диапазон дат из раскрывающегося списка и нажав кнопку "Ввод!".


*Определитесь, кто Вы:
робот инопланетянин человек

Внимание! Время в таблицах - всемирное. Для получения местного времени необходимо прибавить поправку, которая равна 3 ч.

Смотрите также архив погоды в соседних городах и на ближайших метеорологических станциях:

Погода в Геленджике (Краснодарский край, Россия) (25 км)
Погода в Крымске (Краснодарский край, Россия) (25 км)
Погода в Анапе (Краснодарский край, Россия) (48 км)
Погода в Славянске-на-Кубани (Краснодарский край, Россия) (66 км)
Погода в Темрюке (Краснодарский край, Россия) (76 км)
Погода в Джубге (Краснодарский край, Россия) (81 км)
Погода в Горячем Ключе (Краснодарский край, Россия) (99 км)
Погода в Краснодаре (Краснодарский край, Россия) (100 км)
Погода в Тамани (Краснодарский край, Россия) (105 км)
Погода в Туапсе (Краснодарский край, Россия) (119 км)

Пояснения к столбцам:

Ветер - указаны скорость ветра в м/с - средняя за 10 мин, порывы в срок и между сроками (в фигурных скобках) и направление, откуда дует ветер: С - северный, СВ - северо-восточный, В - восточный, ЮВ - юго-восточный, Ю - южный, ЮЗ - юго-западный, З - западный, СЗ - северо-западный.
Видимость - горизонтальная дальность видимости в метрах или километрах. При видимости от 1 до 10 км при отсутствии осадков обычно наблюдается дымка, при ухудшении видимости до 1 км и менее - туман. В сухую погоду видимость может ухудшаться дымом, пылью или мглою.
Явления - указаны атмосферные явления, наблюдавшиеся в срок или в последний час перед сроком; фигурными скобками обозначены явления, наблюдавшиеся между сроками (за 1-3 часа до срока); квадратными скобками обозначены град или гололедные отложения с указанием их диаметра в мм.
Облачность - указаны через наклонную черту общая и нижняя облачность в баллах и высота нижней границы облаков в метрах; квадратными скобками обозначены формы облаков: Ci - перистые, Cs - перисто-слоистые, Cc - перисто-кучевые, Ac - высококучевые, As - высокослоистые, Sc - слоисто-кучевые, Ns - слоисто-дождевые, Cu - кучевые, Cb - кучево-дождевые. Подробнее классификацию облаков см. в Атласе облаков (PDF).
T - Температура воздуха - температура, измеренная на высоте 2 м над землей.
Td - Температура точки росы - температура, при понижении до которой содержащийся в воздухе водяной пар достигнет насыщения.
f - Относительная влажность воздуха - влажноcть воздуха, измеренная на высоте 2 м над землей.
Te - Эффективная температура - температура, которую ощущает одетый по сезону человек в тени. Характеристика душности погоды. При расчете учитывается влияние влажности воздуха и скорости ветра на теплоощущения человека.
Tes - Эффективная температура на солнце - температура, которую ощущает человек, с поправкой на солнечный нагрев. Характеристика знойности погоды. Зависит от высоты солнца над горизонтом, облачности и скорости ветра. Ночью, в пасмурную погоду, а также при ветре 12 м/с и более поправка равна нулю.
P - Атмосферное давление - приведенное к уровню моря атмосферное давление.
Po - Атмосферное давление - измеренное на уровне метеостанции атмосферное давление.
Tmin - Минимальная температура - минимум температуры воздуха на высоте 2 м над землей.
Tmax - Максимальная температура - максимум температуры воздуха на высоте 2 м над землей.
R - Количество осадков - Количество выпавших осадков за период времени, мм. При наведении курсора мыши на число - период времени, за который выпало указанное количество осадков.
R24 - Количество осадков - Количество выпавших осадков за 24 часа, мм.
S - Снежный покров - Высота снежного покрова, см. При наведении курсора мыши на число - состояние снежного покрова и степень покрытия местности в баллах.